Location: Les Gen�tes
(46.3104°N, 1.5969°E)
Time: 20:31:00
(UTC+00:00)

Terra - Pass Details

Date: 01 June 2020
Orbit: 701 x 703 km, 98.2° (Epoch: 11 July)

Event Time Altitude Azimuth Distance (km) Brightness Sun altitude
Exits shadow 20:45:52 11° 119° (ESE) 2,092 3.7 -9.6°
Maximum altitude 20:49:34 27° 64° (ENE) 1,357 3.2 -10.1°
Drops below altitude 10° 20:53:31 10° 8° (N) 2,181 5.0 -10.5°
Sets 20:56:04 0° 357° (N) 3,104 6.1 -10.8°
